Year,Month,Day,Hour,Minute,Value (Times are PST for temperature in C)
2010,07,14,00,00,12.60
2010,07,14,00,01,12.60
2010,07,14,00,02,12.60
2010,07,14,00,03,12.60
2010,07,14,00,04,12.50
2010,07,14,00,05,12.50
2010,07,14,00,06,12.50
2010,07,14,00,07,12.50
2010,07,14,00,08,12.50
2010,07,14,00,09,12.50
2010,07,14,00,10,12.50
2010,07,14,00,11,12.50
2010,07,14,00,12,12.50
2010,07,14,00,13,12.40
2010,07,14,00,14,12.40
2010,07,14,00,15,12.30
2010,07,14,00,16,12.30
2010,07,14,00,17,12.30
2010,07,14,00,18,12.30
2010,07,14,00,19,12.30
2010,07,14,00,20,12.30
2010,07,14,00,21,12.30
2010,07,14,00,22,12.30
2010,07,14,00,23,12.30
2010,07,14,00,24,12.30
2010,07,14,00,25,12.30
2010,07,14,00,26,12.30
2010,07,14,00,27,12.20
2010,07,14,00,28,12.20
2010,07,14,00,29,12.20
2010,07,14,00,30,12.20
2010,07,14,00,31,12.20
2010,07,14,00,32,12.20
2010,07,14,00,33,12.20
2010,07,14,00,34,12.20
2010,07,14,00,35,12.30
2010,07,14,00,36,12.30
2010,07,14,00,37,12.30
2010,07,14,00,38,12.30
2010,07,14,00,39,12.30
2010,07,14,00,40,12.30
2010,07,14,00,41,12.30
2010,07,14,00,42,12.30
2010,07,14,00,43,12.30
2010,07,14,00,44,12.30
2010,07,14,00,45,12.20
2010,07,14,00,46,12.20
2010,07,14,00,47,12.20
2010,07,14,00,48,12.20
2010,07,14,00,49,12.20
2010,07,14,00,50,12.30
2010,07,14,00,51,12.30
2010,07,14,00,52,12.30
2010,07,14,00,53,12.30
2010,07,14,00,54,12.30
2010,07,14,00,55,12.30
2010,07,14,00,56,12.30
2010,07,14,00,57,12.30
2010,07,14,00,58,12.30
2010,07,14,00,59,12.30
2010,07,14,01,00,12.30
2010,07,14,01,01,12.30
2010,07,14,01,02,12.30
2010,07,14,01,03,12.30
2010,07,14,01,04,12.30
2010,07,14,01,05,12.40
2010,07,14,01,06,12.40
2010,07,14,01,07,12.40
2010,07,14,01,08,12.40
2010,07,14,01,09,12.40
2010,07,14,01,10,12.50
2010,07,14,01,11,12.50
2010,07,14,01,12,12.50
2010,07,14,01,13,12.50
2010,07,14,01,14,12.50
2010,07,14,01,15,12.50
2010,07,14,01,16,12.50
2010,07,14,01,17,12.50
2010,07,14,01,18,12.50
2010,07,14,01,19,12.50
2010,07,14,01,20,12.50
2010,07,14,01,21,12.50
2010,07,14,01,22,12.50
2010,07,14,01,23,12.40
2010,07,14,01,24,12.40
2010,07,14,01,25,12.40
2010,07,14,01,26,12.40
2010,07,14,01,27,12.40
2010,07,14,01,28,12.30
2010,07,14,01,29,12.30
2010,07,14,01,30,12.30
2010,07,14,01,31,12.30
2010,07,14,01,32,12.30
2010,07,14,01,33,12.30
2010,07,14,01,34,12.20
2010,07,14,01,35,12.20
2010,07,14,01,36,12.20
2010,07,14,01,37,12.10
2010,07,14,01,38,12.10
2010,07,14,01,39,12.10
2010,07,14,01,40,12.10
2010,07,14,01,41,12.00
2010,07,14,01,42,12.00
2010,07,14,01,43,12.00
2010,07,14,01,44,11.90
2010,07,14,01,45,11.90
2010,07,14,01,46,11.90
2010,07,14,01,47,11.90
2010,07,14,01,48,11.90
2010,07,14,01,49,11.80
2010,07,14,01,50,11.80
2010,07,14,01,51,11.80
2010,07,14,01,52,11.80
2010,07,14,01,53,11.80
2010,07,14,01,54,11.80
2010,07,14,01,55,11.80
2010,07,14,01,56,11.80
2010,07,14,01,57,11.70
2010,07,14,01,58,11.70
2010,07,14,01,59,11.70
2010,07,14,02,00,11.60
2010,07,14,02,01,11.60
2010,07,14,02,02,11.60
2010,07,14,02,03,11.60
2010,07,14,02,04,11.60
2010,07,14,02,05,11.60
2010,07,14,02,06,11.60
2010,07,14,02,07,11.60
2010,07,14,02,08,11.40
2010,07,14,02,09,11.40
2010,07,14,02,10,11.40
2010,07,14,02,11,11.40
2010,07,14,02,12,11.40
2010,07,14,02,13,11.40
2010,07,14,02,14,11.40
2010,07,14,02,15,11.40
2010,07,14,02,16,11.40
2010,07,14,02,17,11.40
2010,07,14,02,18,11.40
2010,07,14,02,19,11.40
2010,07,14,02,20,11.40
2010,07,14,02,21,11.40
2010,07,14,02,22,11.40
2010,07,14,02,23,11.40
2010,07,14,02,24,11.40
2010,07,14,02,25,11.40
2010,07,14,02,26,11.40
2010,07,14,02,27,11.40
2010,07,14,02,28,11.40
2010,07,14,02,29,11.40
2010,07,14,02,30,11.40
2010,07,14,02,31,11.40
2010,07,14,02,32,11.40
2010,07,14,02,33,11.40
2010,07,14,02,34,11.40
2010,07,14,02,35,11.40
2010,07,14,02,36,11.60
2010,07,14,02,37,11.60
2010,07,14,02,38,11.60
2010,07,14,02,39,11.60
2010,07,14,02,40,11.60
2010,07,14,02,41,11.60
2010,07,14,02,42,11.60
2010,07,14,02,43,11.60
2010,07,14,02,44,11.60
2010,07,14,02,45,11.60
2010,07,14,02,46,11.60
2010,07,14,02,47,11.60
2010,07,14,02,48,11.60
2010,07,14,02,49,11.50
2010,07,14,02,50,11.40
2010,07,14,02,51,11.40
2010,07,14,02,52,11.40
2010,07,14,02,53,11.40
2010,07,14,02,54,11.40
2010,07,14,02,55,11.40
2010,07,14,02,56,11.40
2010,07,14,02,57,11.40
2010,07,14,02,58,11.30
2010,07,14,02,59,11.30
2010,07,14,03,00,11.30
2010,07,14,03,01,11.30
2010,07,14,03,02,11.30
2010,07,14,03,03,11.40
2010,07,14,03,04,11.40
2010,07,14,03,05,11.40
2010,07,14,03,06,11.40
2010,07,14,03,07,11.30
2010,07,14,03,08,11.30
2010,07,14,03,09,11.30
2010,07,14,03,10,11.30
2010,07,14,03,11,11.30
2010,07,14,03,12,11.30
2010,07,14,03,13,11.20
2010,07,14,03,14,11.20
2010,07,14,03,15,11.20
2010,07,14,03,16,11.20
2010,07,14,03,17,11.20
2010,07,14,03,18,11.20
2010,07,14,03,19,11.20
2010,07,14,03,20,11.20
2010,07,14,03,21,11.20
2010,07,14,03,22,11.20
2010,07,14,03,23,11.20
2010,07,14,03,24,11.20
2010,07,14,03,25,11.20
2010,07,14,03,26,11.20
2010,07,14,03,27,11.30
2010,07,14,03,28,11.50
2010,07,14,03,29,11.60
2010,07,14,03,30,11.60
2010,07,14,03,31,11.60
2010,07,14,03,32,11.60
2010,07,14,03,33,11.60
2010,07,14,03,34,11.60
2010,07,14,03,35,11.60
2010,07,14,03,36,11.50
2010,07,14,03,37,11.40
2010,07,14,03,38,11.40
2010,07,14,03,39,11.40
2010,07,14,03,40,11.40
2010,07,14,03,41,11.40
2010,07,14,03,42,11.40
2010,07,14,03,43,11.30
2010,07,14,03,44,11.30
2010,07,14,03,45,11.30
2010,07,14,03,46,11.20
2010,07,14,03,47,11.20
2010,07,14,03,48,11.20
2010,07,14,03,49,11.20
2010,07,14,03,50,11.20
2010,07,14,03,51,11.10
2010,07,14,03,52,11.10
2010,07,14,03,53,11.10
2010,07,14,03,54,11.10
2010,07,14,03,55,11.00
2010,07,14,03,56,11.00
2010,07,14,03,57,11.10
2010,07,14,03,58,11.10
2010,07,14,03,59,11.10
2010,07,14,04,00,11.10
2010,07,14,04,01,11.10
2010,07,14,04,02,11.20
2010,07,14,04,03,11.20
2010,07,14,04,04,11.20
2010,07,14,04,05,11.20
2010,07,14,04,06,11.20
2010,07,14,04,07,11.20
2010,07,14,04,08,11.20
2010,07,14,04,09,11.20
2010,07,14,04,10,11.20
2010,07,14,04,11,11.20
2010,07,14,04,12,11.20
2010,07,14,04,13,11.20
2010,07,14,04,14,11.20
2010,07,14,04,15,11.20
2010,07,14,04,16,11.20
2010,07,14,04,17,11.20
2010,07,14,04,18,11.20
2010,07,14,04,19,11.10
2010,07,14,04,20,11.10
2010,07,14,04,21,11.10
2010,07,14,04,22,11.10
2010,07,14,04,23,11.10
2010,07,14,04,24,11.10
2010,07,14,04,25,11.10
2010,07,14,04,26,11.10
2010,07,14,04,27,11.10
2010,07,14,04,28,11.10
2010,07,14,04,29,11.10
2010,07,14,04,30,11.10
2010,07,14,04,31,11.10
2010,07,14,04,32,11.10
2010,07,14,04,33,11.10
2010,07,14,04,34,11.10
2010,07,14,04,35,11.10
2010,07,14,04,36,11.10
2010,07,14,04,37,11.10
2010,07,14,04,38,11.10
2010,07,14,04,39,11.10
2010,07,14,04,40,11.10
2010,07,14,04,41,11.10
2010,07,14,04,42,11.10
2010,07,14,04,43,11.10
2010,07,14,04,44,11.10
2010,07,14,04,45,11.10
2010,07,14,04,46,11.10
2010,07,14,04,47,11.10
2010,07,14,04,48,11.10
2010,07,14,04,49,11.20
2010,07,14,04,50,11.20
2010,07,14,04,51,11.20
2010,07,14,04,52,11.40
2010,07,14,04,53,11.40
2010,07,14,04,54,11.50
2010,07,14,04,55,11.60
2010,07,14,04,56,11.70
2010,07,14,04,57,11.70
2010,07,14,04,58,11.80
2010,07,14,04,59,11.80
2010,07,14,05,00,11.90
2010,07,14,05,01,11.90
2010,07,14,05,02,12.00
2010,07,14,05,03,12.00
2010,07,14,05,04,12.00
2010,07,14,05,05,12.10
2010,07,14,05,06,12.10
2010,07,14,05,07,12.10
2010,07,14,05,08,12.10
2010,07,14,05,09,12.20
2010,07,14,05,10,12.20
2010,07,14,05,11,12.20
2010,07,14,05,12,12.20
2010,07,14,05,13,12.20
2010,07,14,05,14,12.20
2010,07,14,05,15,12.20
2010,07,14,05,16,12.20
2010,07,14,05,17,12.20
2010,07,14,05,18,12.20
2010,07,14,05,19,12.20
2010,07,14,05,20,12.20
2010,07,14,05,21,12.10
2010,07,14,05,22,12.10
2010,07,14,05,23,12.10
2010,07,14,05,24,12.10
2010,07,14,05,25,12.10
2010,07,14,05,26,12.10
2010,07,14,05,27,12.10
2010,07,14,05,28,12.10
2010,07,14,05,29,12.10
2010,07,14,05,30,12.10
2010,07,14,05,31,12.10
2010,07,14,05,32,12.10
2010,07,14,05,33,12.10
2010,07,14,05,34,12.10
2010,07,14,05,35,12.10
2010,07,14,05,36,12.10
2010,07,14,05,37,12.10
2010,07,14,05,38,12.10
2010,07,14,05,39,12.10
2010,07,14,05,40,12.10
2010,07,14,05,41,12.10
2010,07,14,05,42,12.10
2010,07,14,05,43,12.10
2010,07,14,05,44,12.10
2010,07,14,05,45,12.10
2010,07,14,05,46,12.10
2010,07,14,05,47,12.10
2010,07,14,05,48,12.10
2010,07,14,05,49,12.10
2010,07,14,05,50,12.10
2010,07,14,05,51,12.10
2010,07,14,05,52,12.10
2010,07,14,05,53,12.20
2010,07,14,05,54,12.20
2010,07,14,05,55,12.20
2010,07,14,05,56,12.20
2010,07,14,05,57,12.20
2010,07,14,05,58,12.20
2010,07,14,05,59,12.20
2010,07,14,06,00,12.20
2010,07,14,06,01,12.20
2010,07,14,06,02,12.20
2010,07,14,06,03,12.20
2010,07,14,06,04,12.20
2010,07,14,06,05,12.20
2010,07,14,06,06,12.20
2010,07,14,06,07,12.20
2010,07,14,06,08,12.20
2010,07,14,06,09,12.20
2010,07,14,06,10,12.30
2010,07,14,06,11,12.30
2010,07,14,06,12,12.30
2010,07,14,06,13,12.30
2010,07,14,06,14,12.40
2010,07,14,06,15,12.40
2010,07,14,06,16,12.40
2010,07,14,06,17,12.40
2010,07,14,06,18,12.50
2010,07,14,06,19,12.50
2010,07,14,06,20,12.50
2010,07,14,06,21,12.50
2010,07,14,06,22,12.50
2010,07,14,06,23,12.60
2010,07,14,06,24,12.60
2010,07,14,06,25,12.60
2010,07,14,06,26,12.60
2010,07,14,06,27,12.60
2010,07,14,06,28,12.70
2010,07,14,06,29,12.70
2010,07,14,06,30,12.70
2010,07,14,06,31,12.80
2010,07,14,06,32,12.80
2010,07,14,06,33,12.80
2010,07,14,06,34,12.80
2010,07,14,06,35,12.80
2010,07,14,06,36,12.90
2010,07,14,06,37,12.90
2010,07,14,06,38,13.00
2010,07,14,06,39,13.00
2010,07,14,06,40,13.10
2010,07,14,06,41,13.10
2010,07,14,06,42,13.10
2010,07,14,06,43,13.20
2010,07,14,06,44,13.20
2010,07,14,06,45,13.30
2010,07,14,06,46,13.30
2010,07,14,06,47,13.30
2010,07,14,06,48,13.30
2010,07,14,06,49,13.30
2010,07,14,06,50,13.40
2010,07,14,06,51,13.40
2010,07,14,06,52,13.40
2010,07,14,06,53,13.50
2010,07,14,06,54,13.60
2010,07,14,06,55,13.60
2010,07,14,06,56,13.70
2010,07,14,06,57,13.70
2010,07,14,06,58,13.70
2010,07,14,06,59,13.70
2010,07,14,07,00,13.70
2010,07,14,07,01,13.70
2010,07,14,07,02,13.80
2010,07,14,07,03,13.80
2010,07,14,07,04,13.80
2010,07,14,07,05,13.90
2010,07,14,07,06,13.90
2010,07,14,07,07,13.90
2010,07,14,07,08,14.00
2010,07,14,07,09,14.00
2010,07,14,07,10,14.00
2010,07,14,07,11,14.10
2010,07,14,07,12,14.10
2010,07,14,07,13,14.20
2010,07,14,07,14,14.20
2010,07,14,07,15,14.20
2010,07,14,07,16,14.20
2010,07,14,07,17,14.30
2010,07,14,07,18,14.30
2010,07,14,07,19,14.30
2010,07,14,07,20,14.40
2010,07,14,07,21,14.40
2010,07,14,07,22,14.40
2010,07,14,07,23,14.50
2010,07,14,07,24,14.50
2010,07,14,07,25,14.50
2010,07,14,07,26,14.60
2010,07,14,07,27,14.60
2010,07,14,07,28,14.60
2010,07,14,07,29,14.60
2010,07,14,07,30,14.70
2010,07,14,07,31,14.70
2010,07,14,07,32,14.70
2010,07,14,07,33,14.70
2010,07,14,07,34,14.70
2010,07,14,07,35,14.80
2010,07,14,07,36,14.80
2010,07,14,07,37,14.80
2010,07,14,07,38,14.80
2010,07,14,07,39,14.80
2010,07,14,07,40,14.90
2010,07,14,07,41,14.90
2010,07,14,07,42,14.90
2010,07,14,07,43,14.90
2010,07,14,07,44,14.90
2010,07,14,07,45,14.90
2010,07,14,07,46,14.90
2010,07,14,07,47,14.90
2010,07,14,07,48,14.90
2010,07,14,07,49,14.90
2010,07,14,07,50,14.90
2010,07,14,18,20,20.10
2010,07,14,18,21,20.10
2010,07,14,18,22,20.20
2010,07,14,18,23,20.20
2010,07,14,18,24,20.20
2010,07,14,18,25,20.10
2010,07,14,18,26,20.10
2010,07,14,18,27,20.20
2010,07,14,18,28,20.20
2010,07,14,18,29,20.20
2010,07,14,18,30,20.20
2010,07,14,18,31,20.30
2010,07,14,18,32,20.30
2010,07,14,18,33,20.30
2010,07,14,18,34,20.30
2010,07,14,18,35,20.30
2010,07,14,18,36,20.30
2010,07,14,18,37,20.20
2010,07,14,18,38,20.20
2010,07,14,18,39,20.00
2010,07,14,18,40,19.90
2010,07,14,18,41,19.90
2010,07,14,18,42,19.80
2010,07,14,18,43,19.70
2010,07,14,18,44,19.70
2010,07,14,18,45,19.60
2010,07,14,18,46,19.60
2010,07,14,18,47,19.60
2010,07,14,18,48,19.60
2010,07,14,18,49,19.60
2010,07,14,18,50,19.70
2010,07,14,18,51,19.80
2010,07,14,18,52,19.90
2010,07,14,18,53,19.90
2010,07,14,18,54,19.90
2010,07,14,18,55,20.00
2010,07,14,18,56,20.10
2010,07,14,18,57,20.20
2010,07,14,18,58,20.20
2010,07,14,18,59,20.20
2010,07,14,19,00,20.30
2010,07,14,19,01,20.50
2010,07,14,19,02,20.60
2010,07,14,19,03,20.70
2010,07,14,19,04,20.80
2010,07,14,19,05,20.70
2010,07,14,19,06,20.70
2010,07,14,19,07,20.60
2010,07,14,19,08,20.60
2010,07,14,19,09,20.50
2010,07,14,19,10,20.50
2010,07,14,19,11,20.70
2010,07,14,19,12,20.70
2010,07,14,19,13,20.80
2010,07,14,19,14,20.90
2010,07,14,19,15,20.90
2010,07,14,19,16,21.00
2010,07,14,19,17,21.00
2010,07,14,19,18,21.20
2010,07,14,19,19,21.30
2010,07,14,19,20,21.30
2010,07,14,19,21,21.20
2010,07,14,19,22,21.20
2010,07,14,19,23,21.20
2010,07,14,19,24,21.20
2010,07,14,19,25,21.20
2010,07,14,19,26,21.20
2010,07,14,19,27,21.20
2010,07,14,19,28,21.20
2010,07,14,19,29,21.20
2010,07,14,19,30,21.20
2010,07,14,19,31,21.20
2010,07,14,19,32,21.20
2010,07,14,19,33,21.20
2010,07,14,19,34,21.20
2010,07,14,19,35,21.20
2010,07,14,19,36,21.10
2010,07,14,19,37,21.00
2010,07,14,19,38,21.00
2010,07,14,19,39,21.00
2010,07,14,19,40,21.00
2010,07,14,19,41,21.00
2010,07,14,19,42,21.10
2010,07,14,19,43,21.10
2010,07,14,19,44,21.20
2010,07,14,19,45,21.20
2010,07,14,19,46,21.20
2010,07,14,19,47,21.20
2010,07,14,19,48,21.20
2010,07,14,19,49,21.20
2010,07,14,19,50,21.20
2010,07,14,19,51,21.20
2010,07,14,19,52,21.20
2010,07,14,19,53,21.10
2010,07,14,19,54,21.10
2010,07,14,19,55,21.00
2010,07,14,19,56,21.00
2010,07,14,19,57,21.00
2010,07,14,19,58,21.00
2010,07,14,19,59,20.90
2010,07,14,20,00,20.90
2010,07,14,20,01,20.80
2010,07,14,20,02,20.80
2010,07,14,20,03,20.70
2010,07,14,20,04,20.60
2010,07,14,20,05,20.50
2010,07,14,20,06,20.40
2010,07,14,20,07,20.40
2010,07,14,20,08,20.30
2010,07,14,20,09,20.20
2010,07,14,20,10,20.00
2010,07,14,20,11,19.80
2010,07,14,20,12,19.60
2010,07,14,20,13,19.50
2010,07,14,20,14,19.30
2010,07,14,20,15,19.10
2010,07,14,20,16,19.10
2010,07,14,20,17,18.90
2010,07,14,20,18,18.80
2010,07,14,20,19,18.70
2010,07,14,20,20,18.60
2010,07,14,20,21,18.50
2010,07,14,20,22,18.40
2010,07,14,20,23,18.30
2010,07,14,20,24,18.20
2010,07,14,20,25,18.20
2010,07,14,20,26,18.00
2010,07,14,20,27,17.90
2010,07,14,20,28,17.70
2010,07,14,20,29,17.60
2010,07,14,20,30,17.40
2010,07,14,20,31,17.20
2010,07,14,20,32,17.10
2010,07,14,20,33,16.90
2010,07,14,20,34,16.90
2010,07,14,20,35,16.70
2010,07,14,20,36,16.60
2010,07,14,20,37,16.50
2010,07,14,20,38,16.40
2010,07,14,20,39,16.40
2010,07,14,20,40,16.40
2010,07,14,20,41,16.30
2010,07,14,20,42,16.30
2010,07,14,20,43,16.30
2010,07,14,20,44,16.30
2010,07,14,20,45,16.30
2010,07,14,20,46,16.20
2010,07,14,20,47,16.20
2010,07,14,20,48,16.20
2010,07,14,20,49,16.20
2010,07,14,20,50,16.20
2010,07,14,20,51,16.10
2010,07,14,20,52,16.10
2010,07,14,20,53,16.00
2010,07,14,20,54,15.90
2010,07,14,20,55,15.90
2010,07,14,20,56,15.80
2010,07,14,20,57,15.80
2010,07,14,20,58,15.70
2010,07,14,20,59,15.60
2010,07,14,21,00,15.60
2010,07,14,21,01,15.50
2010,07,14,21,02,15.30
2010,07,14,21,03,15.20
2010,07,14,21,04,15.10
2010,07,14,21,05,15.10
2010,07,14,21,06,14.90
2010,07,14,21,07,14.80
2010,07,14,21,08,14.80
2010,07,14,21,09,14.70
2010,07,14,21,10,14.70
2010,07,14,21,11,14.60
2010,07,14,21,12,14.60
2010,07,14,21,13,14.60
2010,07,14,21,14,14.60
2010,07,14,21,15,14.60
2010,07,14,21,16,14.60
2010,07,14,21,17,14.60
2010,07,14,21,18,14.50
2010,07,14,21,19,14.50
2010,07,14,21,20,14.50
2010,07,14,21,21,14.50
2010,07,14,21,22,14.40
2010,07,14,21,23,14.40
2010,07,14,21,24,14.40
2010,07,14,21,25,14.30
2010,07,14,21,26,14.30
2010,07,14,21,27,14.30
2010,07,14,21,28,14.20
2010,07,14,21,29,14.20
2010,07,14,21,30,14.20
2010,07,14,21,31,14.20
2010,07,14,21,32,14.20
2010,07,14,21,33,14.10
2010,07,14,21,34,14.10
2010,07,14,21,35,14.10
2010,07,14,21,36,14.00
2010,07,14,21,37,14.00
2010,07,14,21,38,13.90
2010,07,14,21,39,13.90
2010,07,14,21,40,13.90
2010,07,14,21,41,13.90
2010,07,14,21,42,13.90
2010,07,14,21,43,13.90
2010,07,14,21,44,13.90
2010,07,14,21,45,13.90
2010,07,14,21,46,13.80
2010,07,14,21,47,13.80
2010,07,14,21,48,13.80
2010,07,14,21,49,13.80
2010,07,14,21,50,13.80
2010,07,14,21,51,13.80
2010,07,14,21,52,13.80
2010,07,14,21,53,13.70
2010,07,14,21,54,13.70
2010,07,14,21,55,13.70
2010,07,14,21,56,13.70
2010,07,14,21,57,13.70
2010,07,14,21,58,13.70
2010,07,14,21,59,13.60
2010,07,14,22,00,13.60
2010,07,14,22,01,13.60
2010,07,14,22,02,13.60
2010,07,14,22,03,13.60
2010,07,14,22,04,13.60
2010,07,14,22,05,13.60
2010,07,14,22,06,13.60
2010,07,14,22,07,13.60
2010,07,14,22,08,13.60
2010,07,14,22,09,13.60
2010,07,14,22,10,13.50
2010,07,14,22,11,13.50
2010,07,14,22,12,13.50
2010,07,14,22,13,13.50
2010,07,14,22,14,13.50
2010,07,14,22,15,13.50
2010,07,14,22,16,13.40
2010,07,14,22,17,13.40
2010,07,14,22,18,13.40
2010,07,14,22,19,13.40
2010,07,14,22,20,13.30
2010,07,14,22,21,13.30
2010,07,14,22,22,13.30
2010,07,14,22,23,13.30
2010,07,14,22,24,13.30
2010,07,14,22,25,13.30
2010,07,14,22,26,13.30
2010,07,14,22,27,13.30
2010,07,14,22,28,13.30
2010,07,14,22,29,13.30
2010,07,14,22,30,13.30
2010,07,14,22,31,13.30
2010,07,14,22,32,13.30
2010,07,14,22,33,13.30
2010,07,14,22,34,13.30
2010,07,14,22,35,13.30
2010,07,14,22,36,13.30
2010,07,14,22,37,13.30
2010,07,14,22,38,13.30
2010,07,14,22,39,13.30
2010,07,14,22,40,13.30
2010,07,14,22,41,13.30
2010,07,14,22,42,13.30
2010,07,14,22,43,13.20
2010,07,14,22,44,13.20
2010,07,14,22,45,13.20
2010,07,14,22,46,13.20
2010,07,14,22,47,13.20
2010,07,14,22,48,13.20
2010,07,14,22,49,13.20
2010,07,14,22,50,13.10
2010,07,14,22,51,13.10
2010,07,14,22,52,13.10
2010,07,14,22,53,13.10
2010,07,14,22,54,13.10
2010,07,14,22,55,13.00
2010,07,14,22,56,13.00
2010,07,14,22,57,13.00
2010,07,14,22,58,13.00
2010,07,14,22,59,13.00
2010,07,14,23,00,13.00
2010,07,14,23,01,13.00
2010,07,14,23,02,13.00
2010,07,14,23,03,13.00
2010,07,14,23,04,13.00
2010,07,14,23,05,13.00
2010,07,14,23,06,13.10
2010,07,14,23,07,13.10
2010,07,14,23,08,13.10
2010,07,14,23,09,13.10
2010,07,14,23,10,13.10
2010,07,14,23,11,13.10
2010,07,14,23,12,13.10
2010,07,14,23,13,13.10
2010,07,14,23,14,13.10
2010,07,14,23,15,13.10
2010,07,14,23,16,13.10
2010,07,14,23,17,13.10
2010,07,14,23,18,13.10
2010,07,14,23,19,13.10
2010,07,14,23,20,13.00
2010,07,14,23,21,13.00
2010,07,14,23,22,13.00
2010,07,14,23,23,13.00
2010,07,14,23,24,13.00
2010,07,14,23,25,13.00
2010,07,14,23,26,12.90
2010,07,14,23,27,12.90
2010,07,14,23,28,12.90
2010,07,14,23,29,12.90
2010,07,14,23,30,12.90
2010,07,14,23,31,12.90
2010,07,14,23,32,12.80
2010,07,14,23,33,12.80
2010,07,14,23,34,12.80
2010,07,14,23,35,12.80
2010,07,14,23,36,12.80
2010,07,14,23,37,12.80
2010,07,14,23,38,12.80
2010,07,14,23,39,12.80
2010,07,14,23,40,12.80
2010,07,14,23,41,12.80
2010,07,14,23,42,12.80
2010,07,14,23,43,12.70
2010,07,14,23,44,12.70
2010,07,14,23,45,12.70
2010,07,14,23,46,12.70
2010,07,14,23,47,12.70
2010,07,14,23,48,12.70
2010,07,14,23,49,12.70
2010,07,14,23,50,12.70
2010,07,14,23,51,12.70
2010,07,14,23,52,12.70
2010,07,14,23,53,12.70
2010,07,14,23,54,12.70
2010,07,14,23,55,12.70
2010,07,14,23,56,12.70
2010,07,14,23,57,12.70
2010,07,14,23,58,12.60
2010,07,14,23,59,12.60
